P/2013 J4 ( PanSTARRS )

Japanese version
Home page
Updated on February 2, 2014

---------------------------------------------------------------------

* Profile

Discovery Date May 5, 2013
Magnitude 21.0 mag
Discoverer Pan-STARRS 1 telescope (Haleakala)

* Pictures

* Orbital Elements

T 2013 Nov. 4.21995 TT                                  MPC
q   1.9033675            (2000.0)            P               Q
n   0.25311329     Peri.  118.77062     -0.91868994     +0.38521407
a   2.4751000      Node    84.00114     -0.38604805     -0.82898678
e   0.2309937      Incl.    5.03515     -0.08352060     -0.40545165
P   3.89
From 50 observations 2013 May 5-12.

* Magnitudes Graph

        m1 = 15.0 + 5 log d + 10.0 log r

---------------------------------------------------------------------

The orbital elements are published on M.P.E.C. 2014-B85.
The magnitudes graphs are made with Comet for Windows.

---------------------------------------------------------------------

Copyright(C) Seiichi Yoshida (comet@aerith.net). All rights reserved.